カタログに戻る

STARLINK-36407

運用中通信SSO
NORAD 67612·PAYLOAD·🇺🇸 United States

打ち上げ Jan 29, 2026 から Vandenberg Space Force Base

Loading…

次のパス (今後24時間)

TLE

最新Source: CelesTrak SupGP

元期: Sep 15, 2026, 03:22 UTC

1 67612C 26018Z   26258.14076389  .00017156  00000+0  53257-3 0  2582
2 67612  97.2850 321.7218 0000907  82.5977 215.1470 15.33430384    18

AllMySatでSTARLINK-36407をリアルタイム追跡

Download on the App Store